CAPE
3426 3375 3479 3400 3191 3002 3088 3943 4013 3773 3626 3480 3781 3618 3481 3792 3588 3534 3406 3840 4238 4249 4138 4304 3986 4208 4181 4375 4346 4490 4331 3736 3487 3838 3513 3078 2490 2016 1786 1774 1656 1880
3442 3590 3466 3323 3207 3089 3124 3531 4240 4183 4215 3988 3750 3904 3864 3906 3676 3710 3716 3789 4104 4191 4254 4156 4303 4154 4220 4196 4575 4439 4664 4233 3936 3656 3485 3249 2828 2238 1934 1854 1709 1714
3476 3603 3647 3291 3081 3249 2570 3007 3644 4388 4479 4166 3912 3926 4046 3834 3799 3625 4014 3936 4054 3937 4432 4166 4283 4445 4436 4443 4713 4581 4570 4389 3925 3242 3530 3341 3005 2669 2165 1644 1802 1997
3413 3474 3270 2990 2933 3050 2731 2688 2985 3722 3808 4187 3818 3382 3463 3070 3450 3729 3621 4103 3987 4028 4386 4447 4102 4210 4595 4555 4770 4714 4573 4528 4050 3772 3637 3565 3343 2867 2340 2002 1774 1886
3459 3435 3124 2972 3019 3108 2858 2572 2385 3081 3183 3366 3892 3609 3184 3342 3731 3722 3666 3786 4071 4335 4620 4601 4470 4399 4646 4577 4531 4647 4438 4625 4323 4263 3913 3634 3512 3261 2661 2180 2122 1982
3427 3342 3396 3175 3092 3259 3112 2589 2514 2468 2705 2628 3541 3733 3599 3318 3971 3572 3845 3700 3773 3822 3952 4442 4578 4298 4527 4568 4354 4377 4160 4190 4247 4383 4115 3682 3356 3165 2803 2421 2356 2233
3550 3507 3401 3337 3374 3071 3051 2900 2631 2500 2712 2709 3272 3510 3659 3344 3294 3518 3957 4069 3533 3410 3586 4127 4465 4246 4186 4398 4298 4151 4216 4208 4118 4436 4219 3824 3536 3303 2948 2751 2510 2304
3362 3436 3371 3144 3142 2935 2826 2908 3007 2809 2802 3267 3340 3576 3775 3556 3328 3141 3852 4286 4185 4064 4002 4324 4614 4464 4108 4330 4372 4289 4218 4118 3950 4421 4331 4061 3750 3604 3290 2841 2627 2518
3602 3533 3337 2992 2718 2669 2318 2331 2994 3169 3001 3274 3227 3196 3589 3559 3696 3227 3413 4062 4189 4408 4499 4403 4685 4574 4193 4195 4414 4401 4318 3825 3526 3862 4231 4095 3926 3719 3541 3108 2727 2580
3721 3667 2889 2792 2776 2979 2593 2067 2229 2697 3096 3087 3119 2895 3340 3489 3688 3776 3979 4089 4350 4493 4759 4517 4594 4569 4337 4122 4342 4490 4445 4232 3727 3510 3900 4049 3972 3810 3583 3255 2826 2632
3469 3644 3795 3434 3177 2859 2606 2304 2168 2516 2880 2732 2615 2564 3130 3535 3588 3967 4423 4472 4241 4522 4961 4854 4574 4626 4387 4064 4200 4437 4513 4390 4042 3654 3604 3950 4016 3932 3663 3323 3012 2604
3544 3344 3348 3304 3312 2927 2522 2683 2192 2302 2823 3130 3164 2860 2698 3084 3832 3738 4191 4674 4386 4319 4714 4922 4775 4709 4616 4372 4084 4212 4453 4472 4314 3875 3480 3643 3970 3874 3625 3299 3051 2790
3857 3419 3186 3455 3496 3079 2687 2626 2532 2148 2204 2796 3232 3178 2568 2260 3324 3876 3829 4609 4742 4476 4484 4735 4862 4746 4742 4786 4486 4234 4444 4573 4394 4153 3691 3525 3618 3584 3365 3150 2966 2922
4007 3398 3343 3608 3398 3405 3195 3007 2629 2388 2440 2767 3473 3368 2716 2701 2719 3854 4248 4362 4830 4766 4646 4627 4882 4938 4900 4976 4918 4635 4513 4590 4476 4355 4090 3760 3552 3564 3381 3071 2937 2887
4041 3952 3733 3551 3572 3705 3423 3127 2977 2917 2773 2721 3266 3562 3340 3193 2733 2700 4064 4285 4628 5003 4882 4689 4718 4859 4812 4906 5010 4909 4546 4402 4542 4471 4347 4036 3797 3626 3630 3447 3193 2951
4413 4349 4205 3878 3879 3996 3742 3410 3203 3046 2829 2755 2844 3535 3753 3770 3299 2741 3094 4332 4490 5024 5218 4963 4742 4741 4490 4466 4532 4750 4637 4197 4289 4519 4429 4153 4036 3773 3557 3568 3278 2989
4794 4730 4646 4368 4209 4124 4079 3620 3264 3230 3049 3028 3060 3279 3641 4186 4054 3659 2783 3200 4434 4710 5152 5056 4848 4774 4534 4451 4321 4290 4450 4318 4163 4542 4591 4448 4194 3991 3725 3565 3359 3029
5155 5100 5004 4807 4430 4204 4267 4061 3491 3224 3276 3303 3323 3324 3650 4106 4326 4172 3773 3080 3988 4606 4774 4978 4908 4588 4617 4617 4505 4445 4267 4295 4269 4351 4611 4567 4292 4052 4004 3743 3546 3402
5466 5344 5188 5079 4802 4427 4374 4463 4044 3532 3444 3463 3426 3520 3571 3947 4452 4404 4310 3917 3589 4542 4830 5020 5146 4785 4752 4720 4510 4437 4319 4067 4337 4278 4240 4426 4318 4066 3907 3936 3759 3588
5722 5558 5392 5263 5253 4987 4687 4775 4609 4034 3473 3438 3599 3820 3891 4029 4154 4498 4471 4459 4123 4235 4685 4963 5190 4966 4752 4718 4584 4348 4188 3927 4159 4432 4395 4335 4410 4339 4074 4026 4134 3958
5934 5841 5752 5574 5585 5480 5110 5043 5133 4857 4267 3639 3572 3921 4034 4117 4206 4337 4630 4589 4494 4245 4409 4883 4833 4872 4874 4746 4654 4506 4223 3996 3698 4260 4386 4468 4563 4620 4523 4238 4234 4268
6052 6082 6071 5908 5780 5688 5516 5418 5567 5429 4935 4365 3823 3762 4090 4452 4724 4346 4402 4598 4724 4588 4158 4276 4322 4372 4769 4850 4730 4466 4332 4090 3760 4008 4204 4416 4702 4723 4733 4683 4486 4269
6064 6132 6158 6178 5979 5762 5622 5581 5738 5715 5467 4999 4450 4305 4446 4645 4682 4544 4528 4630 4752 4841 4621 4263 4147 3910 3993 4544 4736 4693 4430 4159 3982 3831 4096 4101 4196 4641 4875 4868 4752 4523
6148 6227 6105 5962 6107 5927 5703 5735 5752 5587 5496 5324 4846 4491 4313 4485 4581 4659 4855 4892 4697 4744 4791 4720 4734 4297 3775 3818 4281 4593 4587 4422 4104 3822 4083 4072 3971 4047 4467 4942 5006 4594
6167 6252 6198 5993 6110 5989 5837 5851 5715 5607 5589 5679 4988 4534 4140 4503 4670 4846 5032 5040 4720 4582 4658 4687 4743 4617 4263 3921 3757 4080 4403 4462 4307 4035 4000 4152 4077 4057 4088 4296 4738 4645
5889 6122 6078 5848 5869 6046 5964 5875 5694 5465 5640 5614 5309 4851 4430 4333 4484 4684 5202 5246 4845 4648 4520 4467 4790 4997 4570 4413 4108 3866 3885 4163 4212 4114 3933 4096 4147 4133 4120 4038 4037 4294
Wind_Speed
10 10 10 10 9 9 9 10 10 9 9 9 10 10 10 11 11 12 11 12 13 12 11 11 13 13 12 11 9 8 10 12 12 12 12 12 13 12 13 14 13 12
11 10 11 12 11 10 10 10 11 10 10 9 10 11 12 12 12 12 13 13 14 13 12 12 13 14 14 13 11 10 9 10 11 12 12 13 12 12 12 13 14 12
11 11 11 12 12 11 11 10 10 11 10 10 10 11 12 12 12 11 12 14 14 13 13 13 13 15 15 15 14 12 11 10 10 11 12 12 11 11 10 12 12 13
12 11 11 11 12 13 12 11 11 10 11 11 10 9 10 11 12 13 12 14 15 14 14 14 15 16 16 16 16 15 13 10 9 9 11 11 10 10 10 9 10 12
14 13 11 11 12 13 14 13 13 13 12 12 12 11 11 11 13 13 13 13 14 15 15 15 15 16 17 16 17 17 15 13 10 9 10 11 11 9 9 10 10 11
14 14 13 12 12 13 14 14 14 15 15 14 15 15 14 13 14 15 15 15 15 15 16 16 16 17 18 17 17 17 17 15 12 11 9 11 11 10 9 10 11 12
16 15 15 14 13 13 13 13 13 14 15 15 16 16 16 16 15 16 18 18 17 16 16 17 17 17 18 18 17 17 17 17 15 13 11 10 11 11 10 10 12 12
16 15 15 14 14 14 14 15 15 14 15 16 16 16 17 17 17 17 18 20 20 19 18 19 19 18 19 19 19 18 18 18 17 16 14 11 11 11 12 11 13 14
16 15 15 16 15 15 16 16 17 17 17 17 17 17 18 17 18 18 18 19 20 21 21 20 21 21 20 19 20 20 19 19 19 18 17 14 13 12 13 12 13 15
16 16 18 18 18 17 18 18 17 18 19 18 18 18 19 19 20 20 20 20 20 21 22 21 21 22 22 21 21 21 21 21 21 19 18 17 14 13 13 13 14 15
16 17 18 19 19 18 19 19 19 19 19 20 19 18 19 21 21 21 22 22 21 21 21 22 22 23 24 23 21 21 22 22 22 21 18 17 15 14 14 14 14 15
17 17 18 19 19 19 20 20 20 19 20 20 19 18 18 19 22 22 22 22 22 22 21 21 22 22 23 24 23 22 22 22 23 23 20 17 15 14 13 13 13 15
18 18 18 18 19 18 18 19 20 20 19 19 19 18 18 17 20 22 22 22 22 22 21 21 22 22 22 23 23 22 22 23 24 23 21 17 14 14 13 13 13 14
18 19 19 19 19 20 19 19 19 19 18 18 18 18 18 18 18 21 23 22 21 21 21 21 21 22 21 22 22 23 22 23 24 24 20 16 14 13 13 12 13 14
20 19 19 18 19 20 20 19 19 19 18 17 17 18 17 17 17 18 21 21 21 21 21 21 21 20 21 22 22 23 23 23 24 23 20 16 14 14 14 14 14 14
20 20 18 17 18 19 20 20 20 20 19 17 16 17 18 18 16 15 17 20 21 21 20 20 19 19 21 25 24 23 23 22 21 20 18 16 15 15 16 17 16 15
19 19 17 16 17 18 20 21 21 20 20 18 17 17 18 19 18 16 14 16 19 20 20 19 18 18 23 24 25 25 22 20 19 17 17 17 15 16 16 18 19 19
15 17 17 16 17 17 19 21 22 21 20 20 19 18 18 19 19 17 15 14 17 18 18 17 15 17 23 23 23 23 21 19 18 17 17 17 17 17 17 18 20 21
15 15 15 16 17 19 20 22 24 22 21 20 20 20 20 19 19 19 17 16 14 16 16 15 12 16 20 21 21 21 22 20 16 17 18 18 18 19 19 20 20 21
17 16 15 15 17 19 21 22 23 23 22 21 21 21 21 19 19 19 18 17 15 13 14 14 12 15 19 20 20 21 21 20 15 16 16 17 18 20 20 21 22 22
21 19 18 18 19 19 20 21 22 22 23 22 22 21 20 19 19 19 19 18 17 15 12 11 10 16 18 19 18 19 20 17 14 15 14 15 17 19 21 23 24 25
26 24 22 21 20 21 20 20 21 23 23 23 22 20 19 19 19 18 18 18 17 15 13 10 8 15 18 18 19 19 22 18 16 17 16 16 17 19 21 23 24 26
30 27 25 21 20 19 19 19 21 23 23 23 21 20 20 20 19 17 17 17 16 16 14 10 9 13 17 17 18 22 22 20 21 21 20 19 18 21 23 24 26 28
33 30 25 21 18 18 19 19 21 22 22 24 22 21 20 19 19 19 19 18 17 17 16 14 12 15 20 18 19 22 24 23 24 25 24 23 23 24 25 26 27 29
34 31 26 21 17 17 19 20 21 21 22 23 22 22 20 21 21 21 20 20 19 18 19 18 15 16 22 23 24 25 25 23 26 27 27 28 30 29 29 28 28 29
34 30 26 21 17 17 18 19 21 21 21 22 22 23 22 21 21 21 21 21 21 21 20 20 19 19 25 27 30 31 34 31 30 30 29 30 31 31 32 32 30 30
Wind_Direction
267 258 262 262 263 262 261 271 276 284 284 283 286 293 301 303 309 312 313 315 328 337 344 346 352 357 360 355 349 345 337 344 346 342 345 335 341 355 357 1 3 8
284 276 264 268 267 270 269 272 279 285 290 289 287 287 294 298 308 305 309 314 323 333 335 341 343 352 358 356 351 345 341 339 345 336 338 341 338 350 358 359 6 6
287 283 283 286 288 294 304 291 286 290 293 299 291 287 291 297 303 303 301 310 317 327 329 332 338 344 352 355 351 348 344 339 344 339 334 339 336 337 347 0 359 4
300 300 294 294 288 295 298 295 295 292 293 296 303 296 293 298 297 305 302 306 309 318 322 326 333 337 343 348 348 348 346 341 338 336 330 327 330 331 335 339 351 354
312 307 299 297 291 290 294 300 308 304 305 299 298 298 295 287 294 299 301 300 302 310 313 319 321 327 331 337 340 342 346 340 333 332 325 325 324 327 322 324 332 346
310 309 307 306 303 299 300 307 306 307 309 309 303 298 297 297 290 295 296 301 300 307 313 315 315 317 322 327 331 336 340 340 335 330 325 322 322 321 315 313 321 332
312 313 316 310 310 309 307 305 301 302 302 301 293 298 297 300 297 292 293 297 302 301 309 307 307 310 310 315 323 328 332 336 334 327 323 317 316 319 320 308 312 319
310 307 310 306 314 312 311 307 304 303 299 296 300 298 297 301 302 298 292 297 300 300 302 304 305 305 308 308 315 321 327 327 332 327 322 318 313 318 318 311 307 313
299 303 305 311 320 316 323 319 310 306 302 301 303 299 298 299 298 301 296 296 298 298 301 302 303 305 303 304 308 315 321 325 329 329 324 320 318 320 321 316 311 312
300 299 314 319 323 316 321 320 313 307 303 305 305 302 301 300 297 299 297 298 299 298 300 301 301 302 304 305 307 311 315 321 323 328 325 321 320 318 322 320 319 312
305 306 311 316 319 313 319 317 314 310 303 309 309 311 306 300 300 299 299 300 301 300 300 303 303 304 306 308 307 307 312 316 320 324 325 321 319 316 317 320 320 316
301 306 311 314 315 313 315 312 311 309 306 306 312 314 309 307 305 304 302 303 302 301 301 302 301 302 305 307 310 308 307 311 314 319 324 320 316 316 313 313 314 314
304 304 300 305 304 302 301 302 307 313 315 313 311 315 318 318 313 310 306 305 304 302 303 301 300 301 301 304 306 306 305 308 311 315 319 316 312 312 309 308 310 309
301 299 296 296 294 294 294 298 303 307 308 303 302 312 321 321 319 313 307 307 307 306 303 299 298 299 300 301 302 302 301 302 305 309 316 315 310 307 303 301 305 310
295 293 293 293 293 292 295 297 298 298 298 298 297 305 308 317 320 316 310 310 308 307 305 303 303 303 298 298 298 300 299 302 306 311 315 313 308 306 303 300 299 305
295 292 290 289 289 291 292 293 289 291 295 297 298 301 300 306 310 315 313 312 311 309 307 305 305 300 306 314 308 301 303 303 305 312 318 317 312 308 306 305 306 307
298 297 292 290 290 289 286 288 290 289 290 293 295 297 300 302 308 314 319 310 310 311 313 312 308 303 316 315 317 320 311 310 314 317 321 323 319 313 309 307 305 308
304 303 300 297 292 292 288 287 289 291 293 295 299 303 299 298 308 315 313 309 305 313 316 315 313 314 316 320 324 328 325 318 320 320 319 323 323 320 312 309 310 312
301 306 307 302 300 294 287 285 290 296 300 301 306 303 299 303 310 315 316 315 311 311 316 316 311 316 319 327 331 335 338 331 317 321 323 325 326 327 325 321 318 315
300 303 307 306 299 296 293 293 297 303 304 300 297 295 302 312 318 319 314 313 314 306 305 315 321 312 324 331 337 341 340 333 324 324 327 331 332 334 333 333 330 324
301 298 299 298 298 297 298 300 301 298 299 297 297 300 307 314 317 316 311 309 313 315 306 306 314 321 323 335 340 342 341 328 324 328 323 326 330 332 334 333 330 327
301 301 301 301 299 294 295 298 297 296 296 294 292 294 297 300 302 304 307 307 307 310 314 316 312 320 324 331 339 337 335 310 316 327 321 318 322 324 324 323 322 324
298 303 305 306 302 298 294 291 288 287 287 285 289 289 291 296 298 299 293 296 301 302 308 304 299 301 311 324 329 333 316 305 303 318 317 321 319 316 315 316 317 319
293 299 304 305 305 309 301 286 279 277 282 282 286 288 292 294 291 288 289 294 300 303 303 299 294 292 302 311 319 319 314 294 303 310 314 317 319 315 309 307 314 326
287 295 299 300 305 307 301 291 284 281 278 278 285 288 290 285 287 291 293 293 302 305 306 305 297 294 302 310 317 315 309 299 304 306 314 319 316 313 310 308 308 314
282 289 294 293 294 299 298 291 280 278 284 286 287 288 291 293 294 295 299 298 301 304 302 301 302 297 299 316 316 318 321 309 307 310 318 317 310 306 304 306 310 309